Location: Beuerbach
(48.1459°N, 10.9174°E)
Time: 01:17:29
(UTC+00:00)

Meteor 1-21 - Pass Details

Date: 12 August 2024
Orbit: 845 x 885 km, 81.2° (Epoch: 09 September)

Event Time Altitude Azimuth Distance (km) Brightness Sun altitude
Rises 22:24:10 0° 359° (N) 3,418 8.6 -26.0°
Reaches altitude 10° 22:27:36 10° 21° (NNE) 2,480 7.3 -26.1°
Maximum altitude 22:31:02 16° 59° (ENE) 2,064 6.4 -26.3°
Enters shadow 22:33:21 13° 86° (E) 2,262 6.3 -26.4°
